Location: Moscow
(55.7500°N, 37.5830°E)
Time: 11:48:00
(UTC+03:00)

Vanguard 3 - Pass Details

Date: 06 December 2021
Orbit: 508 x 3260 km, 33.3° (Epoch: 19 January)

Event Time Altitude Azimuth Distance (km) Brightness Sun altitude
Rises 07:07:37 0° 257° (WSW) 7,229 11.5 -12.2°
Reaches altitude 10° 07:13:36 10° 248° (WSW) 6,132 11.2 -11.4°
Maximum altitude 07:27:50 28° 200° (SSW) 4,148 10.8 -9.6°
Drops below altitude 10° 07:38:35 10° 148° (SSE) 4,574 12.0 -8.2°
Sets 07:42:15 0° 137° (SE) 5,186 12.9 -7.8°
